Time,TemperatureF,DewpointF,PressureIn,WindDirection,WindDirectionDegrees,WindSpeedMPH,WindSpeedGustMPH,Humidity,HourlyPrecipIn,Conditions,Clouds,dailyrainin,SoftwareType,DateUTC
2013-02-19 00:09:00,37.4,-3.6,30.11,ESE,114,6.0,10.0,17,0.00,CLR,,0.00,WeatherDisplay:10.37,2013-02-19 05:09:00,
2013-02-19 00:19:00,37.6,-4.7,30.11,ESE,123,9.0,12.0,16,0.00,CLR,,0.00,WeatherDisplay:10.37,2013-02-19 05:19:00,
2013-02-19 00:29:00,37.4,-3.5,30.11,ESE,117,6.0,9.0,17,0.00,CLR,,0.00,WeatherDisplay:10.37,2013-02-19 05:29:00,
2013-02-19 00:39:00,36.7,-4.1,30.11,SE,126,7.0,11.0,17,0.00,CLR,,0.00,WeatherDisplay:10.37,2013-02-19 05:39:00,
2013-02-19 00:49:00,35.6,-5.0,30.11,ESE,111,8.0,12.0,17,0.00,CLR,,0.00,WeatherDisplay:10.37,2013-02-19 05:49:00,
2013-02-19 00:59:00,36.0,-4.7,30.08,ESE,103,10.0,13.0,17,0.00,CLR,,0.00,WeatherDisplay:10.37,2013-02-19 05:59:00,
2013-02-19 01:09:00,36.3,-4.4,30.08,ESE,123,9.0,13.0,17,0.00,CLR,,0.00,WeatherDisplay:10.37,2013-02-19 06:09:00,
2013-02-19 01:19:00,36.1,-4.6,30.08,ESE,112,9.0,13.0,17,0.00,CLR,,0.00,WeatherDisplay:10.37,2013-02-19 06:19:00,
2013-02-19 01:29:00,35.8,-4.9,30.08,ESE,113,9.0,13.0,17,0.00,CLR,,0.00,WeatherDisplay:10.37,2013-02-19 06:29:00,
2013-02-19 01:39:00,36.0,-2.4,30.08,SSE,153,8.0,12.0,19,0.00,CLR,,0.00,WeatherDisplay:10.37,2013-02-19 06:39:00,
2013-02-19 01:49:00,36.6,-1.9,30.08,ESE,120,8.0,12.0,19,0.00,CLR,,0.00,WeatherDisplay:10.37,2013-02-19 06:49:00,
2013-02-19 01:59:00,36.5,-1.9,30.08,ESE,123,8.0,13.0,19,0.00,CLR,,0.00,WeatherDisplay:10.37,2013-02-19 06:59:00,
2013-02-19 02:09:00,36.9,-1.6,30.08,ESE,120,7.0,13.0,19,0.00,CLR,,0.00,WeatherDisplay:10.37,2013-02-19 07:09:00,
2013-02-19 02:19:00,37.3,-1.2,30.08,ESE,113,8.0,12.0,19,0.00,CLR,,0.00,WeatherDisplay:10.37,2013-02-19 07:19:00,
2013-02-19 02:29:00,37.8,-0.9,30.08,ESE,123,5.0,10.0,19,0.00,CLR,,0.00,WeatherDisplay:10.37,2013-02-19 07:29:00,
2013-02-19 02:39:00,38.7,2.0,30.05,SE,135,5.0,12.0,21,0.00,CLR,,0.00,WeatherDisplay:10.37,2013-02-19 07:39:00,
2013-02-19 02:49:00,38.4,-0.3,30.05,ESE,118,6.0,9.0,19,0.00,CLR,,0.00,WeatherDisplay:10.37,2013-02-19 07:49:00,
2013-02-19 02:59:00,38.0,-0.7,30.05,ESE,117,8.0,13.0,19,0.00,CLR,,0.00,WeatherDisplay:10.37,2013-02-19 07:59:00,
2013-02-19 03:09:00,37.1,-1.4,30.05,SE,135,8.0,12.0,19,0.00,CLR,,0.00,WeatherDisplay:10.37,2013-02-19 08:09:00,
2013-02-19 03:19:00,36.9,1.5,30.05,ESE,117,8.0,10.0,22,0.00,CLR,,0.00,WeatherDisplay:10.37,2013-02-19 08:19:00,
2013-02-19 03:29:00,36.9,1.5,30.02,ESE,120,6.0,11.0,22,0.00,CLR,,0.00,WeatherDisplay:10.37,2013-02-19 08:29:00,
2013-02-19 03:39:00,37.8,1.2,30.02,SE,140,8.0,12.0,21,0.00,CLR,,0.00,WeatherDisplay:10.37,2013-02-19 08:39:00,
2013-02-19 03:49:00,38.5,1.9,30.02,SE,144,10.0,15.0,21,0.00,CLR,,0.00,WeatherDisplay:10.37,2013-02-19 08:49:00,
2013-02-19 03:59:00,38.9,2.2,30.02,SSE,156,13.0,19.0,21,0.00,CLR,,0.00,WeatherDisplay:10.37,2013-02-19 08:59:00,
2013-02-19 04:09:00,38.7,2.0,30.02,SSE,160,10.0,17.0,21,0.00,CLR,,0.00,WeatherDisplay:10.37,2013-02-19 09:09:00,
2013-02-19 04:19:00,38.7,2.1,30.02,SSE,148,13.0,19.0,21,0.00,CLR,,0.00,WeatherDisplay:10.37,2013-02-19 09:19:00,
2013-02-19 04:29:00,37.6,1.1,29.99,SE,143,7.0,13.0,21,0.00,CLR,,0.00,WeatherDisplay:10.37,2013-02-19 09:29:00,
2013-02-19 04:39:00,36.9,3.4,29.99,SE,131,10.0,15.0,24,0.00,CLR,,0.00,WeatherDisplay:10.37,2013-02-19 09:39:00,
2013-02-19 04:49:00,35.6,3.1,29.99,ESE,120,9.0,13.0,25,0.00,CLR,,0.00,WeatherDisplay:10.37,2013-02-19 09:49:00,
2013-02-19 04:59:00,34.5,3.9,29.99,ESE,121,8.0,13.0,27,0.00,CLR,,0.00,WeatherDisplay:10.37,2013-02-19 09:59:00,
2013-02-19 05:09:00,34.6,6.3,29.96,ESE,123,9.0,13.0,30,0.00,CLR,,0.00,WeatherDisplay:10.37,2013-02-19 10:09:00,
2013-02-19 05:19:00,34.8,6.5,29.96,SE,139,8.0,13.0,30,0.00,CLR,,0.00,WeatherDisplay:10.37,2013-02-19 10:19:00,
2013-02-19 05:29:00,35.8,7.3,29.99,SE,132,7.0,15.0,30,0.00,CLR,,0.00,WeatherDisplay:10.37,2013-02-19 10:29:00,
2013-02-19 05:39:00,35.9,7.4,29.96,ESE,121,7.0,13.0,30,0.00,CLR,,0.00,WeatherDisplay:10.37,2013-02-19 10:39:00,
2013-02-19 05:49:00,36.1,7.6,29.96,ESE,122,7.0,12.0,30,0.00,CLR,,0.00,WeatherDisplay:10.37,2013-02-19 10:49:00,
2013-02-19 05:59:00,36.0,7.5,29.96,SE,130,10.0,13.0,30,0.00,CLR,,0.00,WeatherDisplay:10.37,2013-02-19 10:59:00,
2013-02-19 06:09:00,36.3,7.8,29.99,SE,131,7.0,13.0,30,0.00,CLR,,0.00,WeatherDisplay:10.37,2013-02-19 11:09:00,
2013-02-19 06:19:00,36.8,8.2,29.99,SE,133,7.0,12.0,30,0.00,CLR,,0.00,WeatherDisplay:10.37,2013-02-19 11:19:00,
2013-02-19 06:29:00,36.9,8.3,29.96,ESE,122,5.0,8.0,30,0.00,CLR,,0.00,WeatherDisplay:10.37,2013-02-19 11:29:00,
2013-02-19 06:39:00,37.2,8.6,29.96,SSE,158,6.0,12.0,30,0.00,CLR,,0.00,WeatherDisplay:10.37,2013-02-19 11:39:00,
2013-02-19 06:49:00,37.6,8.1,29.96,SE,141,9.0,15.0,29,0.00,CLR,,0.00,WeatherDisplay:10.37,2013-02-19 11:49:00,
2013-02-19 06:59:00,37.9,8.4,29.93,SSE,147,9.0,16.0,29,0.00,CLR,,0.00,WeatherDisplay:10.37,2013-02-19 11:59:00,
2013-02-19 07:09:00,38.1,8.6,29.93,SE,134,10.0,18.0,29,0.00,CLR,,0.00,WeatherDisplay:10.37,2013-02-19 12:09:00,
2013-02-19 07:19:00,37.9,8.5,29.93,SE,145,10.0,15.0,29,0.00,CLR,,0.00,WeatherDisplay:10.37,2013-02-19 12:19:00,
2013-02-19 07:29:00,38.1,8.6,29.93,SE,139,9.0,15.0,29,0.00,CLR,,0.00,WeatherDisplay:10.37,2013-02-19 12:29:00,
2013-02-19 07:39:00,38.3,8.8,29.93,SE,141,7.0,17.0,29,0.00,CLR,,0.00,WeatherDisplay:10.37,2013-02-19 12:39:00,
2013-02-19 07:49:00,38.1,8.6,29.93,SE,144,10.0,16.0,29,0.00,CLR,,0.00,WeatherDisplay:10.37,2013-02-19 12:49:00,
2013-02-19 07:59:00,38.1,9.4,29.93,SSE,152,9.0,15.0,30,0.00,CLR,,0.00,WeatherDisplay:10.37,2013-02-19 12:59:00,
2013-02-19 08:09:00,37.9,9.2,29.93,SE,145,12.0,15.0,30,0.00,CLR,,0.00,WeatherDisplay:10.37,2013-02-19 13:09:00,
2013-02-19 08:19:00,37.8,10.5,29.93,SSE,161,10.0,14.0,32,0.00,CLR,,0.00,WeatherDisplay:10.37,2013-02-19 13:19:00,
2013-02-19 08:29:00,37.2,15.1,29.93,SSE,158,8.0,12.0,40,0.00,CLR,,0.00,WeatherDisplay:10.37,2013-02-19 13:29:00,
2013-02-19 08:39:00,36.5,15.6,29.93,SSE,154,7.0,13.0,42,0.00,CLR,,0.00,WeatherDisplay:10.37,2013-02-19 13:39:00,
2013-02-19 08:49:00,36.1,16.2,29.93,SE,143,10.0,13.0,44,0.00,CLR,,0.00,WeatherDisplay:10.37,2013-02-19 13:49:00,
2013-02-19 08:59:00,36.0,16.1,29.93,SSE,150,10.0,14.0,44,0.00,CLR,,0.00,WeatherDisplay:10.37,2013-02-19 13:59:00,
2013-02-19 09:09:00,35.4,18.6,29.93,SSE,148,12.0,18.0,50,0.00,CLR,,0.00,WeatherDisplay:10.37,2013-02-19 14:09:00,
2013-02-19 09:19:00,35.1,19.6,29.93,SSE,148,8.0,13.0,53,0.00,CLR,,0.00,WeatherDisplay:10.37,2013-02-19 14:19:00,
2013-02-19 09:29:00,34.7,20.6,29.93,SE,143,8.0,15.0,56,0.00,CLR,,0.00,WeatherDisplay:10.37,2013-02-19 14:29:00,
2013-02-19 09:39:00,34.7,21.4,29.90,SSE,147,9.0,15.0,58,0.00,CLR,,0.00,WeatherDisplay:10.37,2013-02-19 14:39:00,
2013-02-19 09:49:00,35.1,21.3,29.90,SE,145,9.0,13.0,57,0.00,CLR,,0.00,WeatherDisplay:10.37,2013-02-19 14:49:00,
2013-02-19 09:59:00,35.1,21.8,29.90,SSE,147,9.0,14.0,58,0.00,CLR,,0.00,WeatherDisplay:10.37,2013-02-19 14:59:00,
2013-02-19 10:09:00,35.6,21.0,29.90,SE,139,8.0,13.0,55,0.00,CLR,,0.00,WeatherDisplay:10.37,2013-02-19 15:09:00,
2013-02-19 10:19:00,36.3,21.7,29.90,SSE,149,9.0,13.0,55,0.00,CLR,,0.00,WeatherDisplay:10.37,2013-02-19 15:19:00,
2013-02-19 10:29:00,37.3,22.6,29.90,SSE,148,9.0,14.0,55,0.05,RA,,0.05,WeatherDisplay:10.37,2013-02-19 15:29:00,
2013-02-19 10:39:00,37.8,21.2,29.90,SE,137,8.0,15.0,51,0.00,CLR,,0.05,WeatherDisplay:10.37,2013-02-19 15:39:00,
2013-02-19 10:49:00,38.3,21.3,29.90,SE,144,10.0,15.0,50,0.00,CLR,,0.05,WeatherDisplay:10.37,2013-02-19 15:49:00,
2013-02-19 10:59:00,38.7,22.1,29.87,SE,143,9.0,14.0,51,0.00,CLR,,0.05,WeatherDisplay:10.37,2013-02-19 15:59:00,
2013-02-19 11:09:00,39.9,23.2,29.87,SSE,159,10.0,15.0,51,0.00,CLR,,0.05,WeatherDisplay:10.37,2013-02-19 16:09:00,
2013-02-19 11:19:00,40.6,23.4,29.87,South,169,12.0,17.0,50,0.00,CLR,,0.05,WeatherDisplay:10.37,2013-02-19 16:19:00,
2013-02-19 11:29:00,41.3,24.0,29.87,SSE,158,13.0,22.0,50,0.00,CLR,,0.05,WeatherDisplay:10.37,2013-02-19 16:29:00,
2013-02-19 11:39:00,40.8,23.6,29.84,SE,146,9.0,17.0,50,0.00,CLR,,0.05,WeatherDisplay:10.37,2013-02-19 16:39:00,
2013-02-19 11:49:00,40.4,25.1,29.84,SE,143,9.0,13.0,54,0.00,CLR,,0.05,WeatherDisplay:10.37,2013-02-19 16:49:00,
2013-02-19 11:59:00,40.6,25.2,29.84,SE,133,7.0,13.0,54,0.00,CLR,,0.05,WeatherDisplay:10.37,2013-02-19 16:59:00,
2013-02-19 12:09:00,39.0,25.5,29.84,SE,126,7.0,12.0,58,0.00,CLR,,0.05,WeatherDisplay:10.37,2013-02-19 17:09:00,
2013-02-19 12:19:00,39.4,27.0,29.84,SE,133,7.0,13.0,61,0.00,CLR,,0.05,WeatherDisplay:10.37,2013-02-19 17:19:00,
2013-02-19 12:29:00,40.1,27.4,29.81,SSE,149,10.0,15.0,60,0.00,CLR,,0.05,WeatherDisplay:10.37,2013-02-19 17:29:00,
2013-02-19 12:39:00,40.8,27.2,29.81,SSE,154,7.0,15.0,58,0.00,CLR,,0.05,WeatherDisplay:10.37,2013-02-19 17:39:00,
2013-02-19 12:49:00,41.7,27.2,29.81,SSE,161,8.0,13.0,56,0.00,CLR,,0.05,WeatherDisplay:10.37,2013-02-19 17:49:00,
2013-02-19 12:59:00,42.4,27.4,29.78,SSE,156,10.0,17.0,55,0.00,CLR,,0.05,WeatherDisplay:10.37,2013-02-19 17:59:00,
2013-02-19 13:09:00,43.2,27.2,29.78,SSE,155,12.0,20.0,53,0.00,CLR,,0.05,WeatherDisplay:10.37,2013-02-19 18:09:00,
2013-02-19 13:19:00,43.5,27.0,29.78,SSE,164,10.0,15.0,52,0.00,CLR,,0.05,WeatherDisplay:10.37,2013-02-19 18:19:00,
2013-02-19 13:29:00,43.9,26.9,29.75,South,174,12.0,17.0,51,0.00,CLR,,0.05,WeatherDisplay:10.37,2013-02-19 18:29:00,
2013-02-19 13:39:00,44.8,27.7,29.75,South,171,9.0,17.0,51,0.00,CLR,,0.05,WeatherDisplay:10.37,2013-02-19 18:39:00,
2013-02-19 13:49:00,45.3,27.3,29.75,SSE,166,10.0,15.0,49,0.00,CLR,,0.05,WeatherDisplay:10.37,2013-02-19 18:49:00,
2013-02-19 13:59:00,45.9,27.3,29.73,SSE,159,7.0,15.0,48,0.00,CLR,,0.05,WeatherDisplay:10.37,2013-02-19 18:59:00,
2013-02-19 14:09:00,45.3,27.2,29.75,SE,135,8.0,13.0,49,0.00,CLR,,0.05,WeatherDisplay:10.37,2013-02-19 19:09:00,
2013-02-19 14:19:00,44.2,27.2,29.75,SE,138,8.0,13.0,51,0.00,CLR,,0.05,WeatherDisplay:10.37,2013-02-19 19:19:00,
2013-02-19 14:29:00,43.9,27.8,29.73,SSE,148,7.0,16.0,53,0.00,CLR,,0.05,WeatherDisplay:10.37,2013-02-19 19:29:00,
2013-02-19 14:39:00,44.6,28.0,29.73,SE,144,7.0,13.0,52,0.00,CLR,,0.05,WeatherDisplay:10.37,2013-02-19 19:39:00,
2013-02-19 14:49:00,44.8,27.3,29.73,SSE,147,8.0,15.0,50,0.00,CLR,,0.05,WeatherDisplay:10.37,2013-02-19 19:49:00,
2013-02-19 14:59:00,45.0,27.9,29.69,SSE,149,8.0,13.0,51,0.00,CLR,,0.05,WeatherDisplay:10.37,2013-02-19 19:59:00,
2013-02-19 15:09:00,45.5,27.4,29.69,SSE,154,10.0,14.0,49,0.00,CLR,,0.05,WeatherDisplay:10.37,2013-02-19 20:09:00,
2013-02-19 15:19:00,46.4,28.3,29.69,SSE,156,5.0,13.0,49,0.00,CLR,,0.05,WeatherDisplay:10.37,2013-02-19 20:19:00,
2013-02-19 15:29:00,47.5,26.6,29.69,SSE,158,8.0,12.0,44,0.00,CLR,,0.05,WeatherDisplay:10.37,2013-02-19 20:29:00,
2013-02-19 15:39:00,47.7,25.7,29.69,SSE,161,7.0,13.0,42,0.00,CLR,,0.05,WeatherDisplay:10.37,2013-02-19 20:39:00,
2013-02-19 15:49:00,48.2,26.2,29.69,SSE,168,7.0,13.0,42,0.00,CLR,,0.05,WeatherDisplay:10.37,2013-02-19 20:49:00,
2013-02-19 15:59:00,48.7,25.5,29.69,SSE,166,7.0,14.0,40,0.00,CLR,,0.05,WeatherDisplay:10.37,2013-02-19 20:59:00,
2013-02-19 16:09:00,50.1,25.4,29.69,South,175,13.0,18.0,38,0.00,CLR,,0.05,WeatherDisplay:10.37,2013-02-19 21:09:00,
2013-02-19 16:19:00,48.9,24.4,29.69,South,177,9.0,15.0,38,0.00,CLR,,0.05,WeatherDisplay:10.37,2013-02-19 21:19:00,
2013-02-19 16:29:00,47.1,24.6,29.69,West,275,10.0,18.0,41,0.00,CLR,,0.05,WeatherDisplay:10.37,2013-02-19 21:29:00,
2013-02-19 16:39:00,46.0,25.9,29.75,NW,318,6.0,7.0,45,0.00,CLR,,0.05,WeatherDisplay:10.37,2013-02-19 21:39:00,
2013-02-19 16:49:00,46.0,26.9,29.75,NNW,333,5.0,6.0,47,0.00,CLR,,0.05,WeatherDisplay:10.37,2013-02-19 21:49:00,
2013-02-19 16:59:00,45.7,26.1,29.75,NW,320,5.0,8.0,46,0.00,CLR,,0.05,WeatherDisplay:10.37,2013-02-19 21:59:00,
2013-02-19 17:09:00,46.6,25.3,29.75,WNW,296,6.0,8.0,43,0.00,CLR,,0.05,WeatherDisplay:10.37,2013-02-19 22:09:00,
2013-02-19 17:19:00,47.5,23.1,29.75,NW,305,12.0,13.0,38,0.00,CLR,,0.05,WeatherDisplay:10.37,2013-02-19 22:19:00,
2013-02-19 17:29:00,47.3,18.9,29.75,WNW,293,6.0,19.0,32,0.00,CLR,,0.05,WeatherDisplay:10.37,2013-02-19 22:29:00,
2013-02-19 17:39:00,47.1,16.4,29.75,WNW,293,13.0,17.0,29,0.00,CLR,,0.05,WeatherDisplay:10.37,2013-02-19 22:39:00,
2013-02-19 17:49:00,46.6,15.2,29.75,WNW,293,10.0,20.0,28,0.00,CLR,,0.05,WeatherDisplay:10.37,2013-02-19 22:49:00,
2013-02-19 17:59:00,46.0,14.7,29.78,WNW,282,7.0,17.0,28,0.00,CLR,,0.05,WeatherDisplay:10.37,2013-02-19 22:59:00,
2013-02-19 18:09:00,45.5,14.2,29.78,WNW,294,6.0,13.0,28,0.00,CLR,,0.05,WeatherDisplay:10.37,2013-02-19 23:09:00,
2013-02-19 18:19:00,43.9,13.6,29.78,NW,323,8.0,13.0,29,0.00,CLR,,0.05,WeatherDisplay:10.37,2013-02-19 23:19:00,
2013-02-19 18:29:00,43.0,12.0,29.78,NW,310,7.0,15.0,28,0.00,CLR,,0.05,WeatherDisplay:10.37,2013-02-19 23:29:00,
2013-02-19 18:39:00,42.6,12.5,29.81,WNW,298,10.0,20.0,29,0.00,CLR,,0.05,WeatherDisplay:10.37,2013-02-19 23:39:00,
2013-02-19 18:49:00,42.8,12.7,29.81,West,281,9.0,20.0,29,0.00,CLR,,0.05,WeatherDisplay:10.37,2013-02-19 23:49:00,
2013-02-19 18:59:00,42.3,12.2,29.81,West,276,7.0,13.0,29,0.00,CLR,,0.05,WeatherDisplay:10.37,2013-02-19 23:59:00,
2013-02-19 19:09:00,41.5,11.6,29.81,West,279,6.0,9.0,29,0.00,CLR,,0.05,WeatherDisplay:10.37,2013-02-20 00:09:00,
2013-02-19 19:19:00,41.2,11.3,29.81,WNW,294,5.0,10.0,29,0.00,CLR,,0.05,WeatherDisplay:10.37,2013-02-20 00:19:00,
2013-02-19 19:29:00,40.5,10.7,29.81,WNW,289,8.0,13.0,29,0.00,CLR,,0.05,WeatherDisplay:10.37,2013-02-20 00:29:00,
2013-02-19 19:39:00,41.2,11.3,29.81,WNW,293,5.0,13.0,29,0.00,CLR,,0.05,WeatherDisplay:10.37,2013-02-20 00:39:00,
2013-02-19 19:49:00,41.2,11.3,29.81,WNW,292,7.0,11.0,29,0.00,CLR,,0.05,WeatherDisplay:10.37,2013-02-20 00:49:00,
2013-02-19 19:59:00,41.2,10.5,29.84,WNW,293,10.0,15.0,28,0.00,CLR,,0.05,WeatherDisplay:10.37,2013-02-20 00:59:00,
2013-02-19 20:09:00,40.8,10.2,29.84,WNW,287,7.0,13.0,28,0.00,CLR,,0.05,WeatherDisplay:10.37,2013-02-20 01:09:00,
2013-02-19 20:19:00,40.6,10.0,29.84,WNW,296,8.0,13.0,28,0.00,CLR,,0.05,WeatherDisplay:10.37,2013-02-20 01:19:00,
2013-02-19 20:29:00,40.4,8.1,29.84,WNW,285,13.0,22.0,26,0.00,CLR,,0.05,WeatherDisplay:10.37,2013-02-20 01:29:00,
2013-02-19 20:39:00,39.6,4.8,29.84,WNW,285,16.0,21.0,23,0.00,CLR,,0.05,WeatherDisplay:10.37,2013-02-20 01:39:00,
2013-02-19 20:49:00,39.4,3.7,29.84,West,280,10.0,25.0,22,0.00,CLR,,0.05,WeatherDisplay:10.37,2013-02-20 01:49:00,
2013-02-19 20:59:00,39.4,2.6,29.84,WNW,283,13.0,24.0,21,0.00,CLR,,0.05,WeatherDisplay:10.37,2013-02-20 01:59:00,
2013-02-19 21:09:00,39.0,2.3,29.84,WNW,283,8.0,21.0,21,0.00,CLR,,0.05,WeatherDisplay:10.37,2013-02-20 02:09:00,
2013-02-19 21:19:00,38.7,-0.1,29.84,WNW,288,8.0,16.0,19,0.00,CLR,,0.05,WeatherDisplay:10.37,2013-02-20 02:19:00,
2013-02-19 21:29:00,38.3,-0.4,29.87,WNW,289,8.0,11.0,19,0.00,CLR,,0.05,WeatherDisplay:10.37,2013-02-20 02:29:00,
2013-02-19 21:39:00,37.6,1.1,29.84,WNW,282,7.0,12.0,21,0.00,CLR,,0.05,WeatherDisplay:10.37,2013-02-20 02:39:00,
2013-02-19 21:49:00,37.0,1.6,29.84,WNW,284,12.0,17.0,22,0.00,CLR,,0.05,WeatherDisplay:10.37,2013-02-20 02:49:00,
2013-02-19 21:59:00,37.6,1.1,29.84,WNW,285,10.0,17.0,21,0.00,CLR,,0.05,WeatherDisplay:10.37,2013-02-20 02:59:00,
2013-02-19 22:09:00,37.4,1.9,29.87,WNW,289,5.0,14.0,22,0.00,CLR,,0.05,WeatherDisplay:10.37,2013-02-20 03:09:00,
2013-02-19 22:19:00,37.2,-1.3,29.87,WNW,283,10.0,22.0,19,0.00,CLR,,0.05,WeatherDisplay:10.37,2013-02-20 03:19:00,
2013-02-19 22:29:00,37.2,-1.3,29.87,NW,304,12.0,19.0,19,0.00,CLR,,0.05,WeatherDisplay:10.37,2013-02-20 03:29:00,
2013-02-19 22:39:00,37.0,1.6,29.87,West,280,8.0,21.0,22,0.00,CLR,,0.05,WeatherDisplay:10.37,2013-02-20 03:39:00,
2013-02-19 22:49:00,36.7,1.3,29.87,WNW,293,7.0,13.0,22,0.00,CLR,,0.05,WeatherDisplay:10.37,2013-02-20 03:49:00,
2013-02-19 22:59:00,35.8,0.6,29.87,NW,308,7.0,12.0,22,0.00,CLR,,0.05,WeatherDisplay:10.37,2013-02-20 03:59:00,
2013-02-19 23:09:00,35.6,2.3,29.87,NW,316,8.0,10.0,24,0.00,CLR,,0.05,WeatherDisplay:10.37,2013-02-20 04:09:00,
2013-02-19 23:19:00,36.1,0.9,29.87,WNW,290,10.0,17.0,22,0.00,CLR,,0.05,WeatherDisplay:10.37,2013-02-20 04:19:00,
2013-02-19 23:29:00,35.9,2.5,29.87,WNW,293,5.0,9.0,24,0.00,CLR,,0.05,WeatherDisplay:10.37,2013-02-20 04:29:00,
2013-02-19 23:39:00,35.8,2.4,29.87,WNW,286,5.0,12.0,24,0.00,CLR,,0.05,WeatherDisplay:10.37,2013-02-20 04:39:00,
2013-02-19 23:49:00,35.5,3.1,29.87,WNW,291,6.0,16.0,25,0.00,CLR,,0.05,WeatherDisplay:10.37,2013-02-20 04:49:00,
2013-02-19 23:59:00,35.5,3.0,29.87,West,276,14.0,23.0,25,0.00,RA,,0.00,WeatherDisplay:10.37,2013-02-20 04:59:00,